Location: Unspecified
(48.5670°N, 0.0000°E)
Time: 18:17:49
(UTC+00:00)

Altair - Pass Details

Date: 01 September 2019
Orbit: 1501 x 1683 km, 47.2° (Epoch: 14 October)

Event Time Altitude Azimuth Distance (km) Brightness Sun altitude
Exits shadow 22:54:38 16° 92° (E) 3,370 9.1 -31.5°
Drops below altitude 10° 22:56:52 10° 82° (E) 3,851 9.5 -31.6°
Sets 23:00:34 0° 70° (ENE) 4,811 10.1 -31.8°
